Regional Weather Roundup
Issued by NWS Charleston, SC

Current Version | Previous Version | Graphics & Text | Print | Product List | Glossary On
Versions: 1 2 3 4 5 6 7 8 9 10 11 12 13 14 15 16 17 18 19 20 21 22 23 24 25 26 27 28 29 30 31 32 33 34 35 36 37 38 39 40 41 42 43 44 45 46 47 48 49 50
863 ASUS42 KCHS 231712 RWRCHS Regional Weather Roundup National Weather Service Charleston SC 100 PM EDT WED MAY 23 2018 NOTE: "fair" indicates few or no clouds below 12,000 feet with no significant weather and/or obstructions to visibility. Not all stations are quality controlled. Use data with caution, especially dewpoint observations. SCZ027-030-031-034>040-042>050-231800- ...Southeast South Carolina... CITY SKY/WX TMP DP RH WIND PRES REMARKS N Charleston FAIR 87 70 56 W6 30.10F HX 92 Waterfront Prk N/A 81 72 74 S5 29.96S Mount Pleasant FAIR 82 75 78 S15 30.10F Johns Island FAIR 82 73 74 S13 30.11F Pinopolis N/A 81 73 78 N5 30.05F Moncks Corner PTSUNNY 81 68 65 SW6 30.10F Summerville FAIR 82 70 65 SW5 30.11F Beaufort MCAS FAIR 85 70 60 S7 30.10F Beaufort Arpt FAIR 82 70 65 SW7 30.10F Hilton Head Is MOSUNNY 82 72 69 S13G18 30.12F Walterboro PTSUNNY 84 68 58 SW7 30.11F Allendale PTSUNNY 79 72 78 VRB6 30.10F ...Southern Midlands and Pee Dee... CITY SKY/WX TMP DP RH WIND PRES REMARKS Georgetown PTSUNNY 77 75 94 S6 30.11F Kingstree LGT RAIN 77 73 88 S3 30.10F Orangeburg LGT RAIN 73 69 87 N3 30.12F Barnwell DRIZZLE 77 73 88 SE6 30.11F Aiken FAIR 79 70 73 S3 30.14F Manning PTSUNNY 73 64 73 W9G18 30.12R Columbia PTSUNNY 80 72 76 SW6 30.09F Sumter LGT RAIN 72 68 88 SW10 30.09S Florence PTSUNNY 85 70 60 SW12 30.08F Myrtle Beach TSTM 72 70 94 SE6 30.12S FOG N Myrtle Beach LGT RAIN 77 73 87 SW18 30.09F $$ GAZ063-065-086>088-099>101-113>116-118-119-134>141-150-231800- ...Southeast Georgia... CITY SKY/WX TMP DP RH WIND PRES REMARKS Savannah Arpt PTSUNNY 86 69 56 SW10 30.11F HX 90 Hunter AAF FAIR 85 69 58 S7 30.08F Fort Stewart PTSUNNY 84 67 56 S5 30.08F Statesboro PTSUNNY 83 68 60 S8 30.10F Sylvania FAIR 85 70 61 S6 30.11F Claxton LGT RAIN 81 75 83 W3 30.10F ...CSRA, Central and far Southeast Georgia... CITY SKY/WX TMP DP RH WIND PRES REMARKS Thomson HVY RAIN 77 71 82 N3 30.15F Augusta-Bush FAIR 82 71 69 VRB6 30.08F Augusta-Daniel FAIR 82 71 69 SW7 30.11F Swainsboro FAIR 81 72 74 S10 30.11F Vidalia PTSUNNY 82 66 57 S6 30.09F Eastman FAIR 83 64 51 SW5 30.10F Hazlehurst N/A 83 69 62 SW5 30.09F Alma CLOUDY 82 71 69 VRB5 30.10F Waycross PTSUNNY 85 69 58 S8 30.10F Jesup NOT AVBL Baxley PTSUNNY 81 70 69 W3 30.10F Brunswick FAIR 86 64 48 SW8 30.12F Saint Simons FAIR 81 73 76 SE15 30.11F $$ SCZ027-028-034-036>038-045-046-048>050-GAZ119-141-231800- ...Lake and Supplemental Coastal Observations... STATION/POSITION TIME TEMP WIND PRES WAVE SWELL AIR SEA DIR/SP/G HT/PER HT/PER/DIR (UTC) (F) (DEG/KT/KT) (MB) (FT/S) (FT/S/D) Winyah Bay 1545 77 210/ 7 1020.0 Lake Murray NOT AVBL ACE Basin NERRS 1545 85 180/ 1 1020.0 Fort Pulaski 1648 82 78 180/ 6/ 9 1020.1F Sapelo Island 1600 85 220/ 7 1020.0 $$ ANZ835-935-AMZ111-154-330-350-352-354-370-450-454-472-231800- ...C-MAN and Buoy Observations... STATION/POSITION TIME TEMP WIND PRES WAVE SWELL AIR SEA DIR/SP/G HT/PER HT/PER/DIR (UTC) (F) (DEG/KT/KT) (MB) (FT/S) (FT/S/D) Buoy 41004 1650 220/ 8/ 10 1020.4F 4/ 8 3/130/ 8 Buoy 41008 1650 76 77 160/ 10/ 10 1019.9F 3/ 8 3/100/ 8 Folly Beach CMAN 1600 78 200/ 13/ 15 1020.7F Capers Nearshore 1608 77 76 230/ 12/ 17 1020.8F Fripp Nearshore NOT AVBL STATION/POSITION TIME TEMP WIND PRES WAVE SWELL AIR SEA DIR/SP/G HT/PER HT/PER/DIR (UTC) (F) (DEG/KT/KT) (MB) (FT/S) (FT/S/D) 5E St. Marys GA 1700 77 N/A 2/ 8 Frying Pan Buoy 1650 76 76 200/ 14/ 16 1020.1F 3/ 7 2/130/ 7 Buoy 41025 1650 75 74 230/ 16/ 19 1018.4F 4/ 5 2/150/ 8 Cape Lookout NC 1600 220/ 12/ 16 1019.1F Buoy 41002 1650 78 200/ 8/ 10 1021.4S 3/ 8 3/130/ 8 Buoy 41010 1650 78 79 130/ 6/ 8 1020.9F 4/ 8 3/120/ 8 St Augustine FL 1700 77 79 130/ 10/ 11 1020.4F $$

USA.gov is the U.S. government's official web portal to all federal, state and local government web resources and services.